Find OneWeb SL0155

NORAD ID: 48057 Int'l Des: 2021-025 Owner: ONEWEBN Country: UK Constellation: oneweb operational
LEOCIRCULARPOLARONEWEB_TYPE

リアルタイム位置

3D地球を読み込み中...

OneWeb SL0155について

説明を読み込み中...

次回通過

Passes for default location (London). Set your location on the main map for personalized predictions.

高度履歴

Loading altitude history...

軌道要素

1 48057U 21025R 26125.55350361 .00000311 00000-0 81676-3 0 9994
2 48057 87.8953 328.7133 0001619 82.5696 277.5618 13.13470469248082
Epoch: May 5, 2026 • Age: 6 hours

現在のステータス

高度 1211.8 km
速度 7.25 km/s
衛星直下点 5.87°N, 176.75°W
打ち上げ日 Mar 25, 2021
運用期間 5.1 years
タイプ internet

技術仕様

分類 Payload
質量 148.00 kg
乾燥質量 140.00 kg
総質量 148.00 kg
長さ 1.30 m
直径 1.00 m
スパン 5.00 m
形状 Trapezoid+2 pan
製造者 ONEWUS
バスタイプ ARROW
フェーズステータス In Orbit
所有者/国 ONEWEBN/UK

Most Searched